Weather History for Tehachapi, CA

Change the Weather History Date:

Friday, December 14, 2012

  Actual Average Record
Temperature  
Mean Temperature 32 °F -  
Max Temperature 37 °F 50 °F 53 °F (2013)
Min Temperature 28 °F 28 °F 23 °F (2011)
Degree Days  
Heating Degree Days 32    
Moisture  
Dew Point 29 °F    
Average Humidity 88    
Maximum Humidity 100    
Minimum Humidity 69    
Precipitation  
Precipitation 0.00 in - - ()
Sea Level Pressure  
Sea Level Pressure 29.82 in    
Wind  
Wind Speed 11 mph (NW)    
Max Wind Speed 16 mph    
Max Gust Speed 22 mph    
Visibility 6 miles    
Events Fog , Rain    
Averages and records for this station are not official NWS values.
T = Trace of Precipitation, MM = Missing Value Source: NWS Daily Summary

Daily Weather History Graph

Daily Weather History Graph

Search for Another Location

Airport:

Trip Planner

Search our weather history database for the weather conditions in past years. The results will help you decide how hot, cold, wet, or windy it might be!

Date:

Astronomy

Dec. 14, 2012 Rise Set
Actual Time 6:54 AM PST 4:43 PM PST
Civil Twilight 6:26 AM PST 5:11 PM PST
Nautical Twilight 5:54 AM PST 5:42 PM PST
Astronomical Twilight 5:23 AM PST 6:13 PM PST
Moon 8:05 AM PST (12/14) 6:38 PM PST (12/14)
Length of Visible Light 10h 44m
Length of Day
9h 48m
Waxing Crescent, 3% of the Moon is Illuminated
Dec 14
Waxing Crescent
Dec 19
First Quarter
Dec 28
Full
Jan 4
Last Quarter
Jan 11
New

Hourly Weather History & Observations

Time (PST) Temp. Windchill Dew Point Humidity Pressure Visibility Wind Dir Wind Speed Gust Speed Precip Events Conditions
12:15 AM 32.0 °F 23.6 °F 32.0 °F 100% 29.75 in 0.2 mi NW 10.4 mph - N/A Fog Fog
12:35 AM 32.0 °F 24.2 °F 32.0 °F 100% 29.74 in 0.2 mi WNW 9.2 mph - N/A Fog Fog
12:55 AM 32.0 °F 24.2 °F 32.0 °F 100% 29.74 in 1.2 mi NW 9.2 mph - N/A Rain Light Rain
1:15 AM 32.0 °F 23.0 °F 32.0 °F 100% 29.74 in 0.2 mi NW 11.5 mph - N/A Fog Fog
1:35 AM 32.0 °F 22.5 °F 32.0 °F 100% 29.74 in 0.5 mi NW 12.7 mph - N/A Fog Fog
1:55 AM 32.0 °F 24.2 °F 32.0 °F 100% 29.75 in 0.5 mi NW 9.2 mph - N/A Fog Fog
2:15 AM 32.0 °F 23.6 °F 32.0 °F 100% 29.75 in 0.5 mi WNW 10.4 mph - N/A Fog Fog
2:35 AM 32.0 °F 23.6 °F 32.0 °F 100% 29.74 in 2.0 mi WNW 10.4 mph - N/A   Overcast
3:15 AM 32.0 °F 23.0 °F 32.0 °F 100% 29.74 in 0.2 mi NW 11.5 mph 16.1 mph N/A Fog Fog
3:35 AM 32.0 °F 23.0 °F 32.0 °F 100% 29.73 in 0.2 mi NW 11.5 mph - N/A Fog Fog
4:15 AM 32.0 °F 21.2 °F 32.0 °F 100% 29.74 in 0.2 mi NW 16.1 mph 19.6 mph N/A Rain Light Rain
4:35 AM 32.0 °F 22.1 °F 32.0 °F 100% 29.74 in 0.2 mi NW 13.8 mph 19.6 mph N/A Fog Fog
4:55 AM 32.0 °F 22.1 °F 32.0 °F 100% 29.74 in 0.2 mi NW 13.8 mph - N/A Fog Fog
5:15 AM 32.0 °F 23.0 °F 32.0 °F 100% 29.75 in 0.2 mi NW 11.5 mph 17.3 mph N/A Fog Fog
5:35 AM 32.0 °F 22.5 °F 32.0 °F 100% 29.75 in 0.2 mi NW 12.7 mph 18.4 mph N/A Fog Fog
5:55 AM 32.0 °F 22.1 °F 32.0 °F 100% 29.76 in 0.2 mi WNW 13.8 mph - N/A Fog Fog
6:15 AM 32.0 °F 22.1 °F 32.0 °F 100% 29.77 in 2.5 mi NW 13.8 mph 21.9 mph N/A   Overcast
6:35 AM 32.0 °F 22.1 °F 32.0 °F 100% 29.78 in 3.0 mi NW 13.8 mph 19.6 mph N/A   Overcast
6:55 AM 32.0 °F 22.1 °F 32.0 °F 100% 29.78 in 3.0 mi NW 13.8 mph - N/A   Overcast
7:15 AM 32.0 °F 23.0 °F 32.0 °F 100% 29.79 in 3.0 mi NW 11.5 mph - N/A   Overcast
7:35 AM 32.0 °F 22.1 °F 32.0 °F 100% 29.79 in 2.5 mi NW 13.8 mph - N/A   Overcast
7:55 AM 32.0 °F 23.6 °F 32.0 °F 100% 29.80 in 3.0 mi NW 10.4 mph - N/A   Overcast
8:15 AM 32.0 °F 23.6 °F 32.0 °F 100% 29.81 in 3.0 mi NW 10.4 mph - N/A   Overcast
8:35 AM 32.0 °F 24.8 °F 32.0 °F 100% 29.81 in 4.0 mi NW 8.1 mph - N/A   Overcast
8:55 AM 32.0 °F 23.6 °F 32.0 °F 100% 29.82 in 5.0 mi NW 10.4 mph - N/A   Overcast
9:15 AM 32.0 °F 23.6 °F 32.0 °F 100% 29.82 in 6.0 mi NW 10.4 mph - N/A   Overcast
9:35 AM 32.0 °F 26.4 °F 32.0 °F 100% 29.83 in 8.0 mi NW 5.8 mph - N/A   Mostly Cloudy
9:55 AM 32.0 °F 23.0 °F 28.4 °F 87% 29.83 in 9.0 mi NW 11.5 mph - N/A   Mostly Cloudy
10:15 AM 35.6 °F 27.5 °F 30.2 °F 81% 29.83 in 9.0 mi NW 11.5 mph - N/A   Overcast
10:35 AM 35.6 °F 28.0 °F 30.2 °F 81% 29.83 in 9.0 mi NW 10.4 mph - N/A   Overcast
10:55 AM 35.6 °F 27.5 °F 30.2 °F 81% 29.82 in 10.0 mi NW 11.5 mph - N/A   Overcast
11:15 AM 35.6 °F 28.0 °F 30.2 °F 81% 29.82 in 10.0 mi NW 10.4 mph - N/A   Mostly Cloudy
11:35 AM 35.6 °F 27.1 °F 28.4 °F 75% 29.81 in 10.0 mi NW 12.7 mph - N/A   Scattered Clouds
11:55 AM 35.6 °F 26.6 °F 30.2 °F 81% 29.81 in 10.0 mi NW 13.8 mph - N/A   Mostly Cloudy
12:15 PM 35.6 °F 27.1 °F 30.2 °F 81% 29.80 in 9.0 mi NNW 12.7 mph - N/A   Mostly Cloudy
12:35 PM 35.6 °F 27.1 °F 32.0 °F 87% 29.80 in 9.0 mi NNW 12.7 mph - N/A   Overcast
12:55 PM 35.6 °F 27.5 °F 30.2 °F 81% 29.81 in 10.0 mi NW 11.5 mph 18.4 mph N/A   Mostly Cloudy
1:35 PM 37.4 °F 29.3 °F 30.2 °F 75% 29.81 in 10.0 mi NW 12.7 mph - N/A   Scattered Clouds
1:55 PM 35.6 °F 27.5 °F 28.4 °F 75% 29.82 in 10.0 mi WNW 11.5 mph - N/A   Scattered Clouds
2:15 PM 35.6 °F 28.6 °F 28.4 °F 75% 29.82 in 10.0 mi NW 9.2 mph - N/A   Scattered Clouds
2:35 PM 35.6 °F 28.0 °F 30.2 °F 81% 29.82 in 10.0 mi NW 10.4 mph - N/A   Mostly Cloudy
3:15 PM 35.6 °F 29.2 °F 30.2 °F 81% 29.83 in 10.0 mi NW 8.1 mph - N/A   Scattered Clouds
3:35 PM 35.6 °F 29.9 °F 28.4 °F 75% 29.84 in 10.0 mi NW 6.9 mph - N/A   Mostly Cloudy
3:55 PM 35.6 °F 29.2 °F 30.2 °F 81% 29.85 in 9.0 mi NW 8.1 mph - N/A   Overcast
4:15 PM 33.8 °F 27.7 °F 30.2 °F 87% 29.85 in 7.0 mi NW 6.9 mph - N/A Rain Light Rain
4:35 PM 33.8 °F 27.7 °F 28.4 °F 81% 29.85 in 9.0 mi WNW 6.9 mph - N/A   Overcast
4:55 PM 32.0 °F 24.8 °F 23.0 °F 69% 29.85 in 10.0 mi SW 8.1 mph - N/A   Overcast
5:15 PM 32.0 °F 28.7 °F 24.8 °F 75% 29.84 in 10.0 mi SW 3.5 mph - N/A   Mostly Cloudy
5:35 PM 32.0 °F 24.2 °F 24.8 °F 75% 29.85 in 10.0 mi North 9.2 mph - N/A   Scattered Clouds
6:15 PM 32.0 °F 28.7 °F 23.0 °F 69% 29.86 in 10.0 mi NW 3.5 mph - N/A   Partly Cloudy
6:35 PM 28.4 °F - 24.8 °F 86% 29.87 in 10.0 mi Calm Calm - N/A   Clear
6:55 PM 30.2 °F - 24.8 °F 80% 29.88 in 10.0 mi Calm Calm - N/A   Clear
7:15 PM 30.2 °F 23.4 °F 23.0 °F 75% 29.88 in 10.0 mi WNW 6.9 mph - N/A   Partly Cloudy
7:55 PM 32.0 °F 23.6 °F 24.8 °F 75% 29.89 in 10.0 mi WNW 10.4 mph - N/A   Overcast
8:15 PM 32.0 °F 23.0 °F 24.8 °F 75% 29.90 in 10.0 mi West 11.5 mph - N/A   Overcast
8:35 PM 32.0 °F 23.6 °F 24.8 °F 75% 29.90 in 10.0 mi WNW 10.4 mph - N/A   Overcast
8:55 PM 32.0 °F 24.8 °F 24.8 °F 75% 29.90 in 10.0 mi WNW 8.1 mph - N/A   Overcast
9:15 PM 32.0 °F 23.0 °F 26.6 °F 80% 29.90 in 10.0 mi NW 11.5 mph - N/A   Mostly Cloudy
9:35 PM 32.0 °F 22.1 °F 26.6 °F 80% 29.91 in 10.0 mi NW 13.8 mph - N/A   Mostly Cloudy
9:55 PM 32.0 °F 22.5 °F 26.6 °F 80% 29.92 in 10.0 mi NW 12.7 mph - N/A   Overcast
10:15 PM 32.0 °F 24.2 °F 26.6 °F 80% 29.92 in 10.0 mi NW 9.2 mph - N/A   Overcast
10:35 PM 32.0 °F 25.6 °F 26.6 °F 80% 29.92 in 10.0 mi West 6.9 mph - N/A   Overcast
10:55 PM 32.0 °F 23.6 °F 26.6 °F 80% 29.92 in 10.0 mi WNW 10.4 mph - N/A   Mostly Cloudy
11:15 PM 30.2 °F 21.9 °F 26.6 °F 86% 29.92 in 9.0 mi WNW 9.2 mph - N/A   Partly Cloudy
11:35 PM 30.2 °F 22.6 °F 26.6 °F 86% 29.92 in 6.0 mi WNW 8.1 mph - N/A   Clear
11:55 PM 30.2 °F 21.9 °F 28.4 °F 93% 29.91 in 5.0 mi NW 9.2 mph - N/A   Clear